World > North America > United States > Alabama > Brighton  

Brighton, AL Hourly Weather Updates

Feedback E-mail the Weather

Quick Clicks

Brighton, AL Weather Maps

°F °C°F °C
Brighton Weather Map
UTC Time: 4/23/2024, 02:11
Your Time:

Brighton, AL Regional Weather

Expires:202404230300;;215326
ASUS44 KBMX 230210
RWRAL 
             
ALABAMA REGIONAL WEATHER ROUNDUP
NATIONAL WEATHER SERVICE BIRMINGHAM AL
900 PM CDT MON APR 22 2024

NOTE: "FAIR" INDICATES FEW OR NO CLOUDS BELOW 12,000 FEET
WITH NO SIGNIFICANT WEATHER AND/OR OBSTRUCTIONS TO VISIBILITY.

THE REMARK "TC" DENOTES TEMPERATURE IN DEGREES CELSIUS.


ALZ015-024>026-033>036-041>044-230300-
CENTRAL ALABAMA
  
CITY           SKY/WX    TMP DP  RH WIND       PRES   REMARKS
BIRMINGHAM     CLEAR     53  39  59 CALM      30.17R TC  12           
MONTGOMERY     CLEAR     55  44  66 CALM      30.15R TC  13           
SHELBY CO ARPT CLEAR     52  46  80 CALM      30.15R TC  11           
MAXWELL AFB    CLEAR     56  45  66 CALM      30.13R TC  14           
GREENVILLE     CLEAR     48  45  89 CALM      30.15R TC   9           
SELMA          CLEAR     50  50 100 CALM      30.14S TC  10           
PRATTVILLE     CLEAR     50  43  76 CALM      30.15R TC  10           
BESSEMER       CLEAR     49  38  65 CALM      30.16R TC   9           
TALLADEGA      CLEAR     50  45  81 NE1       30.15R TC  10           
PELL CITY      MOCLDY    46  43  87 CALM      30.16S TC   8           
SYLACAUGA      CLOUDY    50  44  80 CALM      30.15S TC  10           
JASPER         CLEAR     48  48 100 CALM      30.15R TC   9           
$$
 

SKY/WX - Weather  TMP - Temperature  DP - Dew Point  RH - Humidity
WIND - Wind Direction/Speed PRES - Barometric Pressure VSB - Visibility
WCI - Wind Chill Index E13G22 Wind - East Wind 13 mph/Gusts of 22 mph

Trending Headlines

Trending Entertainment Headlines

Brighton Radar Loop

Use the map search tool if you want to place a location marker on the radar map...

Brighton Quick Facts

National Two Day Weather Forecast


E-mail the Brighton Weather Forecast

Voice your opinion or tell us about page issues...